, AK

(GMT )
Valdez Airport

Weather History for PAVD - May, 2013

Change the Weather History Date:

Tuesday, May 14, 2013

  Actual Average Record
Temperature  
Mean Temperature 35 °F -  
Max Temperature 37 °F 53 °F 68 °F (2016)
Min Temperature 33 °F 37 °F 28 °F (1966)
Degree Days  
Heating Degree Days 30    
Moisture  
Dew Point 33 °F    
Average Humidity 92    
Maximum Humidity 100    
Minimum Humidity 81    
Precipitation  
Precipitation 0.68 in - - ()
Sea Level Pressure  
Sea Level Pressure 29.56 in    
Wind  
Wind Speed 2 mph (East)    
Max Wind Speed 40 mph    
Max Gust Speed 48 mph    
Visibility 7 miles    
Events Rain , Snow    
Averages and records for this station are not official NWS values.
T = Trace of Precipitation, MM = Missing Value Source: NWS Daily Summary

Daily Weather History Graph

Daily Weather History Graph

Search for Another Location

Airport or City:

Trip Planner

Search our weather history database for the weather conditions in past years. The results will help you decide how hot, cold, wet, or windy it might be!

Date:

Astronomy

May. 14, 2013 Rise Set
Actual Time 4:59 AM AKDT 10:24 PM AKDT
Civil Twilight 3:51 AM AKDT 11:34 PM AKDT
Nautical Twilight 2:13 AM AKDT 1:08 AM AKDT
Astronomical Twilight Sun does not set Sun does not set
Moon 8:54 AM AKDT (5/14) 1:34 AM AKDT (5/14)
Length of Visible Light 19h 43m
Length of Day
17h 24m
Waxing Crescent, 20% of the Moon is Illuminated
May 14
Waxing Crescent
May 17
First Quarter
May 24
Full
May 31
Last Quarter
Jun 8
New

Hourly Weather History & Observations

Time (AKDT) Temp. Windchill Dew Point Humidity Pressure Visibility Wind Dir Wind Speed Gust Speed Precip Events Conditions
12:16 AM 37.4 °F 34.9 °F 35.6 °F 93% 29.47 in 10.0 mi East 3.5 mph - N/A   Overcast
12:36 AM 35.6 °F 31.7 °F 33.8 °F 93% 29.47 in 10.0 mi East 4.6 mph - N/A   Overcast
12:56 AM 35.6 °F 31.7 °F 33.8 °F 93% 29.47 in 10.0 mi East 4.6 mph - 0.04 in   Overcast
2:16 AM 35.6 °F 32.8 °F 33.8 °F 93% 29.48 in 10.0 mi East 3.5 mph - N/A   Overcast
2:36 AM 35.6 °F 32.8 °F 33.8 °F 93% 29.48 in 10.0 mi East 3.5 mph - N/A   Overcast
2:56 AM 35.6 °F 32.8 °F 35.6 °F 100% 29.49 in 10.0 mi East 3.5 mph - N/A   Overcast
3:16 AM 35.6 °F - 33.8 °F 93% 29.49 in 10.0 mi Calm Calm - N/A   Overcast
3:36 AM 35.6 °F - 33.8 °F 93% 29.49 in 10.0 mi Calm Calm - N/A   Overcast
3:56 AM 35.6 °F - 33.8 °F 93% 29.49 in 10.0 mi Calm Calm - 0.03 in   Overcast
4:16 AM 35.6 °F - 35.6 °F 100% 29.49 in 10.0 mi Calm Calm - 0.02 in   Overcast
4:56 AM 35.6 °F - 33.8 °F 93% 29.50 in 10.0 mi Calm Calm - 0.06 in   Overcast
5:36 AM 35.6 °F - 33.8 °F 93% 29.50 in 8.0 mi Calm Calm - 0.03 in   Overcast
6:16 AM 35.6 °F - 33.8 °F 93% 29.51 in 7.0 mi Calm Calm - N/A   Overcast
7:16 AM 35.6 °F - 33.8 °F 93% 29.51 in 7.0 mi Calm Calm - N/A   Overcast
7:36 AM 33.8 °F - 33.8 °F 100% 29.51 in 7.0 mi Calm Calm - N/A   Overcast
7:56 AM 35.6 °F - 32.0 °F 87% 29.51 in 6.0 mi Calm Calm - N/A   Overcast
8:16 AM 33.8 °F - 33.8 °F 100% 29.52 in 6.0 mi Calm Calm - N/A   Overcast
8:36 AM 33.8 °F - 33.8 °F 100% 29.52 in 6.0 mi Calm Calm - N/A   Overcast
8:56 AM 33.8 °F - 33.8 °F 100% 29.52 in 3.0 mi Calm Calm - 0.05 in   Overcast
9:56 AM 33.8 °F - 32.0 °F 93% 29.53 in 2.0 mi Calm Calm - 0.07 in   Overcast
10:16 AM 33.8 °F - 33.8 °F 100% 29.54 in 2.0 mi Calm Calm - 0.01 in   Overcast
10:19 AM 33.8 °F - 32.0 °F 93% 29.54 in 7.0 mi Calm Calm - N/A Rain Light Rain
10:56 AM 33.8 °F - 33.8 °F 100% 29.54 in 4.0 mi Calm Calm - 0.03 in   Overcast
11:36 AM 35.6 °F - 33.8 °F 93% 29.54 in 4.0 mi Calm Calm - 0.01 in   Overcast
11:56 AM 35.6 °F - 33.8 °F 93% 29.54 in 6.0 mi Calm Calm - 0.01 in   Overcast
12:16 PM 35.6 °F 32.8 °F 33.8 °F 93% 29.55 in 6.0 mi ESE 3.5 mph - 0.02 in   Overcast
12:24 PM 35.6 °F 27.5 °F 33.8 °F 93% 29.55 in 1.5 mi ENE 11.5 mph 38.0 mph N/A Rain , Snow Light Snow
12:36 PM 33.8 °F 30.8 °F 30.2 °F 87% 29.55 in 1.5 mi East 3.5 mph - 0.07 in   Overcast
12:56 PM 33.8 °F 27.0 °F 30.2 °F 87% 29.56 in 1.0 mi NNE 8.1 mph - 0.09 in   Overcast
1:16 PM 33.8 °F - 30.2 °F 87% 29.56 in 1.0 mi Calm Calm - 0.09 in   Overcast
1:36 PM 33.8 °F 29.6 °F 30.2 °F 87% 29.56 in 1.0 mi WNW 4.6 mph - 0.14 in   Overcast
2:15 PM 33.8 °F - 30.2 °F 87% 29.56 in 4.0 mi Calm Calm - N/A Rain Light Rain
2:36 PM 35.6 °F - 33.8 °F 93% 29.57 in 4.0 mi Calm Calm - N/A   Overcast
2:56 PM 33.8 °F 18.3 °F 30.2 °F 87% 29.58 in 0.5 mi SSW 40.3 mph 48.3 mph N/A   Overcast
3:16 PM 33.8 °F - 30.2 °F 87% 29.59 in 0.5 mi Calm Calm - N/A   Overcast
3:36 PM 35.6 °F 30.7 °F 32.0 °F 87% 29.59 in 0.5 mi South 5.8 mph - N/A   Overcast
3:56 PM 35.6 °F 30.7 °F 32.0 °F 87% 29.59 in 4.0 mi WSW 5.8 mph - 0.13 in   Overcast
4:16 PM 33.8 °F - 32.0 °F 93% 29.60 in 4.0 mi Calm Calm - N/A   Overcast
4:36 PM 33.8 °F 29.6 °F 32.0 °F 93% 29.60 in 4.0 mi WSW 4.6 mph - N/A   Overcast
5:36 PM 35.6 °F - 32.0 °F 87% 29.62 in 10.0 mi Calm Calm - N/A   Overcast
5:56 PM 37.4 °F - 32.0 °F 81% 29.62 in 10.0 mi Calm Calm - N/A   Mostly Cloudy
6:16 PM 37.4 °F - 33.8 °F 87% 29.62 in 10.0 mi Calm Calm - N/A   Mostly Cloudy
6:36 PM 37.4 °F - 33.8 °F 87% 29.61 in 10.0 mi Calm Calm - N/A   Mostly Cloudy
6:56 PM 37.4 °F - 33.8 °F 87% 29.62 in 10.0 mi Calm Calm - N/A   Mostly Cloudy
7:36 PM 37.4 °F - 33.8 °F 87% 29.62 in 10.0 mi Calm Calm - N/A   Mostly Cloudy
7:56 PM 37.4 °F - 33.8 °F 87% 29.62 in 10.0 mi Calm Calm - N/A   Mostly Cloudy
8:16 PM 37.4 °F - 33.8 °F 87% 29.62 in 10.0 mi Calm Calm - N/A   Mostly Cloudy
8:36 PM 37.4 °F - 35.6 °F 93% 29.62 in 10.0 mi Calm Calm - N/A   Mostly Cloudy
9:16 PM 37.4 °F - 33.8 °F 87% 29.62 in 10.0 mi Calm Calm - N/A   Mostly Cloudy
9:36 PM 37.4 °F - 35.6 °F 93% 29.63 in 10.0 mi Calm Calm - N/A   Mostly Cloudy
9:56 PM 37.4 °F - 33.8 °F 87% 29.63 in 10.0 mi Calm Calm - N/A   Mostly Cloudy
10:16 PM 37.4 °F - 32.0 °F 81% 29.64 in 10.0 mi Calm Calm - N/A   Overcast
10:56 PM 37.4 °F - 35.6 °F 93% 29.65 in 10.0 mi Calm Calm - N/A   Overcast
11:16 PM 35.6 °F - 33.8 °F 93% 29.65 in 10.0 mi Calm Calm - N/A   Mostly Cloudy
11:36 PM 35.6 °F - 33.8 °F 93% 29.65 in 10.0 mi Calm Calm - N/A   Mostly Cloudy
11:56 PM 35.6 °F - 33.8 °F 93% 29.65 in 10.0 mi Calm Calm - N/A   Mostly Cloudy